| time (UTC) | temp C | wind direction | speed KPH | gust KPH | rain 1hr cm | rain 24hr cm | rain mn cm | humidity % | barometer mb |
| 20260502162719 | 21 | 167 | 1.6 | 6.4 | 0.00 | 0.00 | 0.00 | 58 | 1014.3 |
| 20260502161716 | 22 | 152 | 3.2 | 9.7 | 0.00 | 0.00 | 0.00 | 58 | 1014.3 |
| 20260502160733 | 23 | 155 | 3.2 | 9.7 | 0.00 | 0.00 | 0.00 | 52 | 1014.4 |
| 20260502151716 | 24 | 245 | 4.8 | 11.3 | 0.00 | 0.00 | 0.00 | 50 | 1014.9 |
| 20260502150732 | 23 | 251 | 1.6 | 4.8 | 0.00 | 0.00 | 0.00 | 51 | 1015.1 |
| 20260502130734 | 24 | 219 | 3.2 | 9.7 | 0.00 | 0.00 | 0.00 | 48 | 1016.0 |
| 20260502123724 | 25 | 257 | 4.8 | 12.9 | 0.00 | 0.00 | 0.00 | 48 | 1016.4 |
| 20260502122720 | 23 | 269 | 4.8 | 14.5 | 0.00 | 0.00 | 0.00 | 50 | 1016.5 |
| 20260502121717 | 24 | 266 | 4.8 | 11.3 | 0.00 | 0.00 | 0.00 | 49 | 1016.6 |
| 20260502120734 | 23 | 232 | 3.2 | 9.7 | 0.00 | 0.00 | 0.00 | 48 | 1016.8 |
| 20260502115731 | 23 | 240 | 4.8 | 9.7 | 0.00 | 0.00 | 0.00 | 50 | 1016.8 |
| 20260502114728 | 23 | 263 | 4.8 | 6.4 | 0.00 | 0.00 | 0.00 | 51 | 1016.9 |
| 20260502113723 | 22 | 252 | 4.8 | 14.5 | 0.00 | 0.00 | 0.00 | 52 | 1016.9 |
| 20260502112719 | 22 | 254 | 4.8 | 11.3 | 0.00 | 0.00 | 0.00 | 52 | 1017.1 |
| 20260502111716 | 23 | 276 | 4.8 | 11.3 | 0.00 | 0.00 | 0.00 | 49 | 1017.2 |
| 20260502110733 | 22 | 258 | 3.2 | 9.7 | 0.00 | 0.00 | 0.00 | 49 | 1017.1 |
| 20260502105730 | 22 | 261 | 6.4 | 11.3 | 0.00 | 0.00 | 0.00 | 48 | 1017.3 |
| 20260502104728 | 23 | 251 | 4.8 | 11.3 | 0.00 | 0.00 | 0.00 | 47 | 1017.4 |
| 20260502103723 | 22 | 229 | 3.2 | 11.3 | 0.00 | 0.00 | 0.00 | 47 | 1017.4 |
| 20260502102720 | 22 | 257 | 4.8 | 11.3 | 0.00 | 0.00 | 0.00 | 47 | 1017.5 |
| 20260502101716 | 23 | 252 | 4.8 | 9.7 | 0.00 | 0.00 | 0.00 | 47 | 1017.6 |
| 20260502100738 | 23 | 237 | 3.2 | 6.4 | 0.00 | 0.00 | 0.00 | 46 | 1017.6 |
| 20260502090732 | 21 | 233 | 1.6 | 6.4 | 0.00 | 0.00 | 0.00 | 46 | 1018.0 |
| 20260502070732 | 16 | 190 | 0.0 | 4.8 | 0.00 | 0.00 | 0.00 | 51 | 1018.1 |
| 20260502065729 | 16 | 159 | 1.6 | 6.4 | 0.00 | 0.00 | 0.00 | 52 | 1018.2 |
| 20260502064725 | 16 | 141 | 1.6 | 9.7 | 0.00 | 0.00 | 0.00 | 53 | 1018.4 |
| 20260502063722 | 15 | 180 | 1.6 | 4.8 | 0.00 | 0.00 | 0.00 | 54 | 1018.3 |
| 20260502062719 | 15 | 153 | 0.0 | 4.8 | 0.00 | 0.00 | 0.00 | 55 | 1018.2 |
| 20260502061715 | 15 | 152 | 1.6 | 4.8 | 0.00 | 0.00 | 0.00 | 56 | 1018.2 |
| 20260502060732 | 14 | 151 | 1.6 | 6.4 | 0.00 | 0.00 | 0.00 | 56 | 1018.2 |
| 20260502055729 | 14 | 167 | 3.2 | 9.7 | 0.00 | 0.00 | 0.00 | 56 | 1018.3 |
| 20260502054726 | 13 | 164 | 1.6 | 4.8 | 0.00 | 0.00 | 0.00 | 56 | 1018.3 |
| 20260502053723 | 13 | 163 | 1.6 | 6.4 | 0.00 | 0.00 | 0.00 | 57 | 1018.2 |
| 20260502052719 | 13 | 155 | 1.6 | 6.4 | 0.00 | 0.00 | 0.00 | 58 | 1018.3 |
| 20260502051717 | 12 | 156 | 1.6 | 4.8 | 0.00 | 0.00 | 0.00 | 58 | 1018.2 |
| 20260502050733 | 12 | 150 | 1.6 | 4.8 | 0.00 | 0.00 | 0.00 | 58 | 1018.3 |
| 20260502045729 | 12 | 161 | 1.6 | 4.8 | 0.00 | 0.00 | 0.00 | 59 | 1018.3 |
| 20260502044726 | 12 | 160 | 1.6 | 4.8 | 0.00 | 0.00 | 0.00 | 59 | 1018.5 |
| 20260502043723 | 12 | 164 | 1.6 | 3.2 | 0.00 | 0.00 | 0.00 | 59 | 1018.5 |
| 20260502042719 | 12 | 164 | 1.6 | 4.8 | 0.00 | 0.00 | 0.00 | 59 | 1018.5 |
| 20260502041716 | 12 | 162 | 0.0 | 4.8 | 0.00 | 0.00 | 0.00 | 59 | 1018.5 |
| 20260502040733 | 12 | 157 | 0.0 | 4.8 | 0.00 | 0.00 | 0.00 | 59 | 1018.6 |
| 20260502035730 | 12 | 149 | 0.0 | 3.2 | 0.00 | 0.00 | 0.00 | 59 | 1018.7 |
| 20260502034726 | 12 | 156 | 1.6 | 4.8 | 0.00 | 0.00 | 0.00 | 58 | 1018.7 |
| 20260502033723 | 12 | 168 | 1.6 | 3.2 | 0.00 | 0.00 | 0.00 | 58 | 1018.8 |
| 20260502032719 | 12 | 150 | 0.0 | 3.2 | 0.00 | 0.00 | 0.00 | 57 | 1018.8 |
| 20260502031716 | 12 | 160 | 1.6 | 3.2 | 0.00 | 0.00 | 0.00 | 57 | 1018.8 |
| 20260502030733 | 12 | 154 | 1.6 | 3.2 | 0.00 | 0.00 | 0.00 | 56 | 1018.9 |
| 20260502025732 | 12 | 160 | 1.6 | 3.2 | 0.00 | 0.00 | 0.00 | 56 | 1019.0 |
| 20260502024726 | 12 | 152 | 1.6 | 3.2 | 0.00 | 0.00 | 0.00 | 56 | 1019.1 |
| 20260502023723 | 12 | 162 | 0.0 | 1.6 | 0.00 | 0.00 | 0.00 | 56 | 1018.9 |
| 20260502022719 | 12 | 138 | 0.0 | 1.6 | 0.00 | 0.00 | 0.00 | 55 | 1019.1 |
| 20260502021716 | 13 | 164 | 0.0 | 1.6 | 0.00 | 0.00 | 0.00 | 55 | 1019.3 |
| 20260502020733 | 13 | 151 | 0.0 | 3.2 | 0.00 | 0.00 | 0.00 | 54 | 1019.3 |
| 20260502015729 | 13 | 159 | 1.6 | 4.8 | 0.00 | 0.00 | 0.00 | 53 | 1019.4 |
| 20260502014726 | 13 | 150 | 1.6 | 4.8 | 0.00 | 0.00 | 0.00 | 53 | 1019.6 |
| 20260502013723 | 13 | 123 | 1.6 | 3.2 | 0.00 | 0.00 | 0.00 | 53 | 1019.6 |
| 20260502012711 | 13 | 161 | 0.0 | 3.2 | 0.00 | 0.00 | 0.00 | 52 | 1019.7 |
| 20260502011716 | 13 | 162 | 1.6 | 3.2 | 0.00 | 0.00 | 0.00 | 52 | 1019.7 |
| 20260502010733 | 14 | 171 | 0.0 | 3.2 | 0.00 | 0.00 | 0.00 | 51 | 1019.9 |
| 20260502005729 | 14 | 157 | 1.6 | 3.2 | 0.00 | 0.00 | 0.00 | 51 | 1019.9 |
| 20260502004727 | 14 | 155 | 1.6 | 3.2 | 0.00 | 0.00 | 0.00 | 50 | 1020.1 |
| 20260502003723 | 14 | 149 | 1.6 | 3.2 | 0.00 | 0.00 | 0.00 | 50 | 1020.1 |
| 20260502002720 | 14 | 156 | 0.0 | 1.6 | 0.00 | 0.00 | 0.00 | 50 | 1020.3 |
| 20260502001719 | 14 | 177 | 0.0 | 1.6 | 0.00 | 0.00 | 0.00 | 50 | 1020.3 |
| 20260502000735 | 14 | 131 | 0.0 | 1.6 | 0.00 | 0.00 | 0.00 | 50 | 1020.4 |
| 20260501235731 | 15 | 159 | 0.0 | 3.2 | 0.00 | 0.00 | 0.00 | 49 | 1020.5 |
| 20260501234727 | 15 | 150 | 0.0 | 3.2 | 0.00 | 0.00 | 0.00 | 48 | 1020.5 |
| 20260501233724 | 15 | 146 | 1.6 | 3.2 | 0.00 | 0.00 | 0.00 | 48 | 1020.5 |
| 20260501232721 | 15 | 160 | 1.6 | 3.2 | 0.00 | 0.00 | 0.00 | 47 | 1020.6 |
| 20260501231718 | 15 | 148 | 1.6 | 4.8 | 0.00 | 0.00 | 0.00 | 47 | 1020.6 |
| 20260501230734 | 15 | 146 | 1.6 | 3.2 | 0.00 | 0.00 | 0.00 | 47 | 1020.7 |
| 20260501225731 | 15 | 146 | 0.0 | 1.6 | 0.00 | 0.00 | 0.00 | 47 | 1020.7 |
| 20260501224728 | 15 | 0.0 | 0.0 | 0.00 | 0.00 | 0.00 | 47 | 1020.7 | |
| 20260501223729 | 15 | 150 | 0.0 | 3.2 | 0.00 | 0.00 | 0.00 | 46 | 1020.9 |
| 20260501222726 | 15 | 153 | 1.6 | 3.2 | 0.00 | 0.00 | 0.00 | 46 | 1020.8 |
| 20260501221718 | 15 | 149 | 0.0 | 1.6 | 0.00 | 0.00 | 0.00 | 46 | 1020.9 |
| 20260501220734 | 15 | 0.0 | 0.0 | 0.00 | 0.00 | 0.00 | 47 | 1020.9 | |
| 20260501215731 | 15 | 0.0 | 0.0 | 0.00 | 0.00 | 0.00 | 47 | 1020.9 | |
| 20260501214728 | 15 | 0.0 | 0.0 | 0.00 | 0.00 | 0.00 | 47 | 1020.9 | |
| 20260501213724 | 15 | 0.0 | 0.0 | 0.00 | 0.00 | 0.00 | 48 | 1020.9 | |
| 20260501212716 | 15 | 0.0 | 0.0 | 0.00 | 0.00 | 0.00 | 47 | 1020.9 | |
| 20260501211718 | 15 | 0.0 | 0.0 | 0.00 | 0.00 | 0.00 | 46 | 1021.0 | |
| 20260501210734 | 15 | 0.0 | 0.0 | 0.00 | 0.00 | 0.00 | 46 | 1021.0 | |
| 20260501205731 | 16 | 0.0 | 0.0 | 0.00 | 0.00 | 0.00 | 46 | 1021.0 | |
| 20260501204727 | 16 | 0.0 | 0.0 | 0.00 | 0.00 | 0.00 | 46 | 1021.2 | |
| 20260501203724 | 16 | 0.0 | 0.0 | 0.00 | 0.00 | 0.00 | 47 | 1021.2 | |
| 20260501202720 | 16 | 0.0 | 0.0 | 0.00 | 0.00 | 0.00 | 47 | 1021.2 | |
| 20260501201717 | 16 | 0.0 | 0.0 | 0.00 | 0.00 | 0.00 | 47 | 1021.2 | |
| 20260501200733 | 16 | 128 | 0.0 | 1.6 | 0.00 | 0.00 | 0.00 | 50 | 1021.2 |
| 20260501195730 | 15 | 0.0 | 0.0 | 0.00 | 0.00 | 0.00 | 51 | 1021.1 | |
| 20260501194727 | 16 | 0.0 | 0.0 | 0.00 | 0.00 | 0.00 | 50 | 1021.0 | |
| 20260501193723 | 16 | 0.0 | 0.0 | 0.00 | 0.00 | 0.00 | 51 | 1021.1 | |
| 20260501192720 | 17 | 0.0 | 0.0 | 0.00 | 0.00 | 0.00 | 50 | 1021.1 | |
| 20260501191717 | 18 | 0.0 | 0.0 | 0.00 | 0.00 | 0.00 | 43 | 1021.1 | |
| 20260501190733 | 18 | 0.0 | 0.0 | 0.00 | 0.00 | 0.00 | 43 | 1021.1 | |
| 20260501185730 | 19 | 0.0 | 0.0 | 0.00 | 0.00 | 0.00 | 43 | 1021.0 | |
| 20260501184727 | 20 | 0.0 | 0.0 | 0.00 | 0.00 | 0.00 | 42 | 1021.1 | |
| 20260501183723 | 20 | 0.0 | 0.0 | 0.00 | 0.00 | 0.00 | 41 | 1021.1 | |
| 20260501182720 | 21 | 0.0 | 0.0 | 0.00 | 0.00 | 0.00 | 39 | 1021.0 | |
| 20260501181716 | 21 | 0.0 | 0.0 | 0.00 | 0.00 | 0.00 | 39 | 1021.0 | |
| 20260501180733 | 22 | 231 | 0.0 | 1.6 | 0.00 | 0.00 | 0.00 | 36 | 1020.9 |
| 20260501175730 | 22 | 217 | 1.6 | 3.2 | 0.00 | 0.00 | 0.00 | 36 | 1020.9 |
| 20260501174726 | 23 | 244 | 0.0 | 3.2 | 0.00 | 0.00 | 0.00 | 34 | 1020.9 |
| 20260501173724 | 23 | 221 | 1.6 | 3.2 | 0.00 | 0.00 | 0.00 | 34 | 1020.9 |
| 20260501172720 | 23 | 237 | 1.6 | 3.2 | 0.00 | 0.00 | 0.00 | 34 | 1020.8 |
| 20260501171717 | 24 | 196 | 3.2 | 4.8 | 0.00 | 0.00 | 0.00 | 33 | 1020.9 |
| 20260501170733 | 25 | 232 | 1.6 | 4.8 | 0.00 | 0.00 | 0.00 | 32 | 1020.9 |
| 20260501165730 | 24 | 253 | 1.6 | 6.4 | 0.00 | 0.00 | 0.00 | 31 | 1021.0 |
| 20260501164727 | 25 | 209 | 1.6 | 6.4 | 0.00 | 0.00 | 0.00 | 31 | 1021.2 |
| 20260501163723 | 25 | 258 | 3.2 | 6.4 | 0.00 | 0.00 | 0.00 | 30 | 1021.1 |